Starlink 5677

operational
NORAD ID: 55463 Int'l Des: 2023-015 Owner: SPXS Country: US Constellation: starlink
LEOCIRCULAR

About Starlink 5677

Description loading...

Live Position

Loading 3D Globe...

Upcoming Passes

Altitude History

Altitude vs Time

uPlot chart will show altitude changes over time

Two-Line Element Set

1 55463U 23015Q 25350.19257620 .00001281 00000-0 10991-3 0 9996
2 55463 43.0046 59.7100 0001287 271.0704 88.9991 15.02538708158190
Epoch: Dec 16, 2025 • Age: 20 hours

Current Status

Altitude 561.4 km
Velocity 7.58 km/s
Sub-Earth Point -13.51°S, 154.33°E
Launch Date Feb 2, 2023
Age 2.8 years
Type internet

Technical Details

Classification Payload
Mass 305.00 kg
Dry Mass 290.00 kg
Total Mass 305.00 kg
Length 0.20 m
Diameter 2.80 m
Span 9.00 m
Shape Box + pan
Manufacturer SPXS
Bus Type Starlink
Phase Status In Orbit
Owner/State SPXS/US

Large Constellations

Loading constellations...